カタログに戻る

STARLINK-4471

運用中通信SSO
NORAD 53664·PAYLOAD·🇺🇸 United States

打ち上げ Aug 31, 2022 から Vandenberg Space Force Base

Loading…

次のパス (今後24時間)

TLE

最新Source: CelesTrak SupGP

元期: Sep 15, 2026, 01:29 UTC

1 53664C 22105S   26258.06229167  .00083309  00000+0  25874-2 0  2588
2 53664  97.2836 134.9066 0001721  93.6607  58.0813 15.33380284    15

AllMySatでSTARLINK-4471をリアルタイム追跡

Download on the App Store